Weather History for Robinson, IL

Change the Weather History Date:

Sunday, March 30, 2014

  Actual Average (KLWV) Record (KLWV)
Temperature  
Mean Temperature 43 °F 50 °F  
Max Temperature 59 °F 61 °F 84 °F (2012)
Min Temperature 27 °F 39 °F 26 °F (1991)
Degree Days  
Heating Degree Days 22 15  
Month to date heating degree days 605  
Since 1 July heating degree days 4280  
Cooling Degree Days 0 0  
Month to date cooling degree days 0  
Year to date cooling degree days 0  
Moisture  
Dew Point 33 °F    
Average Humidity 71    
Maximum Humidity 99    
Minimum Humidity 36    
Precipitation  
Precipitation 0.00 in 0.15 in 3.86 in (1989)
Month to date precipitation 3.27  
Year to date precipitation 7.66  
Sea Level Pressure  
Sea Level Pressure 30.22 in    
Wind  
Wind Speed 4 mph (WSW)    
Max Wind Speed 8 mph    
Max Gust Speed -    
Visibility 9 miles    
Events      
T = Trace of Precipitation, MM = Missing Value Source: NWS Daily Summary

Daily Weather History Graph

Daily Weather History Graph

Search for Another Location

Airport:

Trip Planner

Search our weather history database for the weather conditions in past years. The results will help you decide how hot, cold, wet, or windy it might be!

Date:

Astronomy

Mar. 30, 2014 Rise Set
Actual Time 6:38 AM CDT 7:12 PM CDT
Civil Twilight 6:11 AM CDT 7:39 PM CDT
Nautical Twilight 5:39 AM CDT 8:10 PM CDT
Astronomical Twilight 5:07 AM CDT 8:43 PM CDT
Moon 6:23 AM CDT (3/30) 7:24 PM CDT (3/30)
Length of Visible Light 13h 27m
Length of Day
12h 34m
Waning Crescent, 0% of the Moon is Illuminated
Mar 30
Waning Crescent
Mar 30
New
Apr 7
First Quarter
Apr 15
Full
Apr 22
Last Quarter

Hourly Weather History & Observations

Time (CDT) Temp. Windchill Dew Point Humidity Pressure Visibility Wind Dir Wind Speed Gust Speed Precip Events Conditions
12:15 AM 35.6 °F 30.7 °F 32.0 °F 87% 30.26 in 10.0 mi North 5.8 mph - N/A   Clear
12:35 AM 35.1 °F 30.1 °F 32.0 °F 89% 30.26 in 10.0 mi North 5.8 mph - N/A   Clear
1:15 AM 34.2 °F 29.0 °F 31.6 °F 90% 30.26 in 10.0 mi North 5.8 mph - N/A   Clear
1:35 AM 34.0 °F 28.8 °F 31.5 °F 90% 30.26 in 10.0 mi North 5.8 mph - N/A   Clear
1:55 AM 33.3 °F 27.9 °F 31.1 °F 92% 30.26 in 7.0 mi North 5.8 mph - N/A   Clear
2:15 AM 33.1 °F 28.7 °F 31.1 °F 92% 30.27 in 7.0 mi North 4.6 mph - N/A   Clear
2:35 AM 32.4 °F 27.9 °F 30.9 °F 94% 30.27 in 7.0 mi NNW 4.6 mph - N/A   Clear
2:55 AM 32.2 °F 28.9 °F 30.7 °F 94% 30.27 in 7.0 mi NNW 3.5 mph - N/A   Clear
3:15 AM 31.8 °F - 30.2 °F 94% 30.27 in 7.0 mi Calm Calm - N/A   Clear
3:35 AM 30.4 °F - 28.9 °F 94% 30.27 in 7.0 mi Calm Calm - N/A   Clear
3:55 AM 30.6 °F 27.1 °F 29.5 °F 96% 30.27 in 7.0 mi NW 3.5 mph - N/A   Clear
4:15 AM 30.7 °F - 29.8 °F 96% 30.27 in 5.0 mi Calm Calm - N/A   Clear
4:35 AM 29.3 °F 25.6 °F 28.4 °F 96% 30.27 in 7.0 mi NW 3.5 mph - N/A   Clear
4:55 AM 30.2 °F 26.7 °F 29.1 °F 96% 30.27 in 7.0 mi NW 3.5 mph - N/A   Clear
5:15 AM 29.7 °F - 28.8 °F 96% 30.26 in 5.0 mi Calm Calm - N/A   Clear
5:35 AM 28.8 °F - 27.9 °F 96% 30.26 in 5.0 mi Calm Calm - N/A   Clear
5:55 AM 28.6 °F - 28.0 °F 98% 30.25 in 4.0 mi Calm Calm - N/A   Clear
6:15 AM 28.2 °F - 27.9 °F 99% 30.25 in 4.0 mi Calm Calm - N/A   Clear
6:35 AM 27.3 °F 23.4 °F 26.8 °F 98% 30.26 in 3.0 mi West 3.5 mph - N/A   Clear
6:55 AM 27.5 °F 23.6 °F 27.1 °F 99% 30.27 in 3.0 mi West 3.5 mph - N/A   Clear
7:15 AM 29.1 °F 25.4 °F 28.8 °F 99% 30.28 in 3.0 mi WNW 3.5 mph - N/A   Clear
7:35 AM 31.8 °F - 31.5 °F 99% 30.29 in 4.0 mi Calm Calm - N/A   Clear
7:55 AM 32.5 °F 28.1 °F 31.8 °F 97% 30.30 in 5.0 mi NW 4.6 mph - N/A   Clear
8:15 AM 33.8 °F 30.8 °F 31.8 °F 92% 30.30 in 7.0 mi NNW 3.5 mph - N/A   Clear
8:35 AM 35.1 °F 31.0 °F 32.0 °F 89% 30.30 in 7.0 mi NW 4.6 mph - N/A   Clear
8:55 AM 36.7 °F - 32.0 °F 83% 30.30 in 7.0 mi Calm Calm - N/A   Clear
9:15 AM 38.1 °F 35.7 °F 32.0 °F 79% 30.31 in 10.0 mi WNW 3.5 mph - N/A   Clear
9:35 AM 39.4 °F - 32.5 °F 76% 30.30 in 10.0 mi Calm Calm - N/A   Clear
9:55 AM 41.4 °F - 32.5 °F 71% 30.30 in 10.0 mi Calm Calm - N/A   Clear
10:15 AM 43.0 °F 41.3 °F 32.9 °F 68% 30.30 in 7.0 mi East 3.5 mph - N/A   Clear
10:35 AM 43.7 °F - 32.9 °F 66% 30.30 in 10.0 mi Calm Calm - N/A   Clear
10:55 AM 44.2 °F - 32.5 °F 63% 30.30 in 7.0 mi Calm Calm - N/A   Clear
11:15 AM 44.8 °F - 32.5 °F 62% 30.29 in 10.0 mi Calm Calm - N/A   Clear
11:35 AM 46.8 °F - 32.5 °F 58% 30.29 in 10.0 mi WSW 3.5 mph - N/A   Clear
11:55 AM 47.7 °F - 31.8 °F 54% 30.28 in 10.0 mi Calm Calm - N/A   Clear
12:15 PM 49.5 °F - 32.5 °F 52% 30.27 in 10.0 mi Calm Calm - N/A   Clear
12:35 PM 50.2 °F - 33.3 °F 52% 30.26 in 10.0 mi West 4.6 mph - N/A   Clear
12:55 PM 51.4 °F - 32.5 °F 49% 30.25 in 10.0 mi WSW 5.8 mph - N/A   Clear
1:15 PM 52.9 °F - 34.3 °F 49% 30.24 in 10.0 mi WSW 3.5 mph - N/A   Clear
1:35 PM 53.8 °F - 34.0 °F 47% 30.23 in 10.0 mi West 3.5 mph - N/A   Clear
1:55 PM 54.3 °F - 34.2 °F 47% 30.22 in 10.0 mi Calm Calm - N/A   Clear
2:15 PM 56.5 °F - 35.4 °F 45% 30.20 in 10.0 mi South 3.5 mph - N/A   Clear
2:35 PM 56.5 °F - 35.1 °F 45% 30.19 in 10.0 mi SW 5.8 mph - N/A   Clear
2:55 PM 56.7 °F - 32.9 °F 41% 30.19 in 10.0 mi SW 3.5 mph - N/A   Clear
3:15 PM 57.6 °F - 34.3 °F 42% 30.19 in 10.0 mi WSW 3.5 mph - N/A   Clear
3:35 PM 58.3 °F - 32.4 °F 38% 30.18 in 10.0 mi Calm Calm - N/A   Clear
3:55 PM 58.6 °F - 32.4 °F 37% 30.18 in 10.0 mi West 3.5 mph - N/A   Clear
4:15 PM 59.0 °F - 33.6 °F 38% 30.17 in 10.0 mi SSW 5.8 mph - N/A   Clear
4:35 PM 59.0 °F - 33.4 °F 38% 30.17 in 10.0 mi West 8.1 mph - N/A   Clear
4:55 PM 59.0 °F - 34.0 °F 39% 30.17 in 10.0 mi West 3.5 mph - N/A   Clear
5:15 PM 59.0 °F - 32.2 °F 36% 30.16 in 10.0 mi SW 3.5 mph - N/A   Clear
5:35 PM 58.8 °F - 32.0 °F 36% 30.16 in 10.0 mi SSW 3.5 mph - N/A   Clear
5:55 PM 58.8 °F - 33.4 °F 38% 30.16 in 10.0 mi SW 4.6 mph - N/A   Clear
6:15 PM 58.1 °F - 33.6 °F 40% 30.16 in 10.0 mi WSW 4.6 mph - N/A   Clear
6:35 PM 56.5 °F - 35.1 °F 45% 30.15 in 10.0 mi South 3.5 mph - N/A   Clear
6:55 PM 53.6 °F - 35.6 °F 51% 30.14 in 10.0 mi South 4.6 mph - N/A   Clear
7:15 PM 51.8 °F - 37.2 °F 58% 30.14 in 10.0 mi South 4.6 mph - N/A   Clear
7:35 PM 50.0 °F - 35.4 °F 57% 30.14 in 10.0 mi South 4.6 mph - N/A   Clear
7:55 PM 47.1 °F - 38.3 °F 71% 30.15 in 10.0 mi South 4.6 mph - N/A   Clear
8:15 PM 45.7 °F 43.4 °F 38.3 °F 75% 30.16 in 10.0 mi South 4.6 mph - N/A   Clear
8:35 PM 45.0 °F 41.2 °F 36.3 °F 72% 30.15 in 10.0 mi SSE 6.9 mph - N/A   Clear
8:55 PM 46.6 °F - 36.9 °F 69% 30.15 in 10.0 mi South 8.1 mph - N/A   Clear
9:15 PM 46.4 °F 43.5 °F 36.5 °F 68% 30.15 in 10.0 mi South 5.8 mph - N/A   Clear
9:35 PM 44.8 °F 41.6 °F 36.1 °F 72% 30.15 in 10.0 mi South 5.8 mph - N/A   Clear
9:55 PM 44.6 °F 41.4 °F 35.2 °F 70% 30.14 in 10.0 mi SSE 5.8 mph - N/A   Clear
10:15 PM 45.0 °F 41.8 °F 35.2 °F 69% 30.14 in 10.0 mi SSE 5.8 mph - N/A   Clear
10:35 PM 41.9 °F 37.5 °F 35.8 °F 79% 30.14 in 10.0 mi SSE 6.9 mph - N/A   Clear
10:55 PM 40.6 °F 37.5 °F 34.7 °F 79% 30.14 in 10.0 mi South 4.6 mph - N/A   Clear
11:15 PM 41.0 °F 38.0 °F 35.1 °F 79% 30.14 in 10.0 mi South 4.6 mph - N/A   Clear
11:35 PM 39.6 °F 37.4 °F 35.1 °F 84% 30.14 in 10.0 mi SSE 3.5 mph - N/A   Clear
11:55 PM 39.4 °F 37.2 °F 34.9 °F 84% 30.14 in 10.0 mi South 3.5 mph - N/A   Clear